Location: Caprauna
(44.1200°N, 7.5700°E)
Time: 13:25:57
(UTC+02:00)

ISS - Visible Passes

Search period start: 22 October 2019 00:00
Search period end: 31 October 2019 23:00
Orbit: 411 x 421 km, 51.6° (Epoch: 22 October)

Date Brightness Start Highest point End Pass type
(mag) Time Alt. Az. Time Alt. Az. Time Alt. Az.
24 Oct -1.2 06:48:04 10° S 06:50:37 20° SE 06:53:11 10° E visible
25 Oct -0.8 06:00:47 10° SSE 06:02:14 12° SE 06:03:42 10° ESE visible
26 Oct -3.0 06:46:45 11° SW 06:49:55 52° SE 06:53:12 10° ENE visible
27 Oct -2.2 05:00:47 28° SSE 05:01:24 31° SE 05:04:25 10° ENE visible
28 Oct -0.5 04:14:38 14° E 04:14:38 14° E 04:15:22 10° E visible
28 Oct -3.8 05:47:33 25° WSW 05:49:21 65° NNW 05:52:43 10° NE visible
29 Oct -3.3 05:01:15 59° ENE 05:01:15 59° ENE 05:04:04 10° ENE visible
30 Oct -0.5 04:14:50 14° ENE 04:14:50 14° ENE 04:15:22 10° ENE visible
30 Oct -2.9 05:47:44 26° WNW 05:48:56 34° NNW 05:52:03 10° NE visible
31 Oct -2.4 05:01:14 33° NNE 05:01:14 33° NNE 05:03:27 10° NE visible
